Regional Weather Roundup
Issued by NWS

Home | Current Version | Previous Version | Graphics & Text | Print | Product List | Glossary On
Versions: 1 2 3 4 5 6 7 8 9 10 11 12 13 14 15 16 17 18 19 20 21 22 23 24 25 26 27 28 29 30 31 32 33 34 35 36 37 38 39 40 41 42 43 44 45 46 47 48 49 50
000
ASUS43 KLMK 301610
RWRKY
KENTUCKY REGIONAL WEATHER ROUNDUP
NATIONAL WEATHER SERVICE LOUISVILLE KY
1200 PM EDT MON MAY 30 2016

NOTE "FAIR" INDICATES FEW OR NO CLOUDS BELOW 12,000 FEET
WITH NO SIGNIFICANT WEATHER AND/OR OBSTRUCTIONS TO VISIBILITY.

KYZ001>023-026-027-061>063-070>075-301700-
WESTERN AND SOUTH CENTRAL KENTUCKY

CITY           SKY/WX    TMP DP  RH WIND       PRES   REMARKS
PADUCAH        SUNNY     84  62  47 E5        30.06F
HENDERSON      SUNNY     81  61  50 E5        30.06S
OWENSBORO      SUNNY     83  61  47 N6        30.07F
HOPKINSVILLE   SUNNY     82  63  51 N6        30.06F
BOWLING GREEN  SUNNY     84  63  49 E5        30.06F
GLASGOW        SUNNY     82  59  45 N7        30.06F
$$

KYZ024-025-028>034-038-045-046-053-301700-
NORTH CENTRAL KENTUCKY

CITY           SKY/WX    TMP DP  RH WIND       PRES   REMARKS
LOUISVILLE/SDF PTSUNNY   84  58  40 N9        30.05F
LOUISVILLE/LOU SUNNY     84  57  39 NW5       30.06F
FORT KNOX      SUNNY     81  60  48 W6        30.05S
$$

KYZ035>037-039>044-047>052-055>060-089>105-301700-
NORTHEAST KENTUCKY

CITY           SKY/WX    TMP DP  RH WIND       PRES   REMARKS
LEXINGTON      SUNNY     82  64  54 N7        30.07S
COVINGTON      MOSUNNY   81  59  47 NW6       30.08R
FRANKFORT      MOSUNNY   82  60  47 VRB6      30.05F
$$

KYZ054-064>069-076>088-106>120-301700-
SOUTHEAST KENTUCKY

CITY           SKY/WX    TMP DP  RH WIND       PRES   REMARKS
JACKSON        SUNNY     77  64  64 CALM      30.07F
LONDON         MOSUNNY   81  65  58 VRB3      30.06F
SOMERSET       SUNNY     79  64  61 W5        30.08R
MIDDLESBORO    SUNNY     80  65  61 CALM      30.06F
MONTICELLO     SUNNY     81  62  52 N14G20    30.09R
$$





USA.gov is the U.S. government's official web portal to all federal, state and local government web resources and services.